User: anonymous   Login
Location: Antoign�
(47.0844°N, 0.1131°W)
Time: 00:06:44
(UTC+00:00)
Language:

HJ-1C - Orbit

View from above orbital plane
View from above orbital plane
View from above satellite
View from above satellite

Ground track
Ground track

The orbit data is extracted from the following two-line orbital elements,

1 38997U 12064A   21138.74364436  .00003578  00000-0  79585-4 0  9992
2 38997  97.1203 168.3084 0007765 215.4230 256.0590 15.44271379477493
Epoch (UTC): 18 May 2021 17:50:50
Eccentricity: 0.0007765
inclination: 97.1203°
perigee height: 428 km
apogee height: 439 km
right ascension of ascending node: 168.3084°
argument of perigee: 215.4230°
revolutions per day: 15.44271379
mean anomaly at epoch: 256.0590°
orbit number at epoch: 47749

The dashed part of the orbit path shows where the satellite is in the earth's shadow,  

DLR